Find the Weather for any City, State or Zip Code, or Country:


Mobile Weather


Questions? Comments?
Contact Greg


Winchester Trails
Subdivision Website


New! Stream Houston NOAA Weather Radio Here!


Current Maps

Tropical (Hurricane)

Temperature

Heat Index

Windchill

Humidity

Radar

Dew Point

Wind

Visibility

Visible Satellite

Satellite

Fronts

Jet Stream

Flight Rules


Forecast Maps

Temperature Forecast

Maximum Temperature Forecast

Minimum Temperature Forecast

Dewpoint Forecast

Prevalent Weather

12Hr Probability of Precip.

Sky Cover


Health Maps

Houston Pollen/Mold Report

UV Forecast

Air Quality

Peak Air Quality Index


Miscellaneous

NOAA Aviation Weather

NWS Houston/Galveston

National Weather Service (main page)

National Hurricane Center

NOAA Historical Hurricane Tracks

Wunderground
Hurricane Archive


Harris Co. Flood Warning System

Harris Co. Storm Risk Calculator

U.S. Drought Monitor

TX Lake/Reservoir Data & Levels

Eric 'SciGuy' Berger Weather Blog

Dr. Jeff Masters Weather Blog

Houston Traffic

TxDOT Highway Conditions

Houston Electricity Outage Tracker

Houston Bayport Cruise Terminal Webcam

Galveston CruiseCam


This Station's Data

NOAA-Style Reports

Weather Detail

Daily Tabular Data


This Station's Position:
Lat. 29° 54' 14.18" N
Lon. 95° 34' 24.45" W
Elevation 112 ft (34.1 m)


Visit this station's partner in Cypress, 8sm west of here!


Weather Instruments:


Vantage Pro 2


Current Weather Conditions

This page refreshes automatically every 5 minutes and is best viewed at 1024x768 or higher resolution.
Powered by Ambient Weather Virtual Weather Station V15.00

Page last refreshed October 26, 2014 at 2:37 am CDT (UTC -6)

Metric & Other Conversions for Current Observations
Current Temp15.8 °CHigh Temp18.5 °CLow Temp15.8 °C
Current Dew Point14.2 °CHeat Index18.9 °CWind Chill15.8 °C
Barometer1018.67 mbarBarometer764 mmHgBarometer14.77 psi
Density Altitude:  74 ft (22.6 m)Pressure Altitude:  -36 ft (-11 m)
Barometer readings for a Standard Day (59.0 °F/15.0 °C @ sea level):  29.92" Hg, 1013.25 mbar, 757.83 mmHg, 14.70 psi


No Warnings, Watches, or Advisories for Harris and surrounding counties.


Local Radar Other Radar Graphics Local Satellite
Click for larger image WunderMap®

High Definition Radar (KHOU)

Regional Radar
Click for larger image
Radar & Satellite Graphics by Weather Underground




National Weather Service Forecast for: Jersey Village TX
Issued by: National Weather Service Houston, TX
Updated: 1:20 am CDT Oct 26, 2014
 
Overnight

Clear
Clear
Sunday

Sunny
Sunny
Sunday
Night

Mostly Clear
Mostly
Clear
Monday

Mostly Sunny
Mostly
Sunny
Monday
Night

Partly Cloudy
Partly
Cloudy
Tuesday

Partly Sunny
Partly
Sunny
Tuesday
Night

Slight Chc T-Storms. Chance for Measurable Precipitation 20%
Slight Chc
T-Storms
Wednesday

Chance T-Storms. Chance for Measurable Precipitation 30%
Chance
T-Storms
Wednesday
Night

Slight Chc T-Storms. Chance for Measurable Precipitation 20%
Slight Chc
T-Storms
Lo 58 °F Hi 86 °F Lo 63 °F Hi 85 °F Lo 67 °F Hi 85 °F Lo 65 °F Hi 83 °F Lo 63 °F

 

Overnight
 
Clear, with a low around 58. Calm wind.
Sunday
 
Sunny, with a high near 86. Calm wind becoming south around 5 mph in the afternoon.
Sunday Night
 
Mostly clear, with a low around 63. South wind 5 to 10 mph.
Monday
 
Mostly sunny, with a high near 85. South wind 5 to 15 mph.
Monday Night
 
Partly cloudy, with a low around 67. South wind 5 to 10 mph.
Tuesday
 
Partly sunny, with a high near 85.
Tuesday Night
 
A 20 percent chance of showers and thunderstorms after 1am. Partly cloudy, with a low around 65.
Wednesday
 
A 30 percent chance of showers and thunderstorms. Mostly sunny, with a high near 83.
Wednesday Night
 
A 20 percent chance of showers and thunderstorms. Mostly cloudy, with a low around 63.
Thursday
 
A 20 percent chance of showers and thunderstorms. Mostly sunny, with a high near 81.
Thursday Night
 
Mostly clear, with a low around 60.
Friday
 
Sunny, with a high near 78.
Friday Night
 
Mostly clear, with a low around 53.
Saturday
 
Sunny, with a high near 74.

 

Forecast from NOAA-NWS for Jersey Village TX.

Follow this link for a current verbose area forecast discussion from the NWS.
Forecast Script by Saratoga Weather | Animated icons by Meteo Treviglio


Radar and Satellite Imagery


US Current Fronts w/Radar

Southcentral Infrared Satellite

US Jet Stream

Visible Satellite
The WunderMap is interactive - pan and zoom with your mouse.
WunderMap here requires Flash.
If accessing from an iOS device, you can download the Wundermap App from the App Store.
  
Click to go to WUnderground
Sea Surface Temp & Tropical System Map
Map Graphics by Weather Underground


Rainfall Information
Yesterday's Rain: 0 in
Last Rainfall:
Surrounding Area Rainfall Data
NOAA Avg. Rainfall For: Month to Date
(1971-2000)
Month to Date
(1981-2010)
Year to Date
(1971-2000)
Year to Date
(1981-2010)
Jersey Village: 3.59 in
(-0.97 in)
4.29 in
(-1.67 in)
41.18 in
(-5.61 in)
42.92 in
(-7.35 in)
Intercontinental (KIAH) 3.79 in 4.83 in 39.25 in 40.82 in
Hobby (KHOU) 4.46 in 5.04 in 44.84 in 45.35 in
NOTE:  The numbers in parenthesis under the Jersey Village data above indicate how far ahead (green) or behind (red) this station's rain total is compared to the NOAA 1971-2000 and 1981-2010 climate normals data for today's date (Oct 26).


Other Current Regional Observations (METARs)

(Ordered by straight-line statute mile distance from this weather station)

A Few More Observations/METARs of Interest to Greg


Weather Almanac

NOAA/NWS Daily Historical Weather Browser
Major SE Texas Weather Events

Records and Normals for Oct 26
Temperature Forecast Normal Record
High 84° 77° 90°
(1927)
Low 63°
53°
33°
(1955)
Highs & Lows Observed at This Station
  Today Yesterday For 10/2014 For 2014
High Temp 65.3°F at 12:00am 85.7°F at 4:24pm 93.7°F on 10/2/14 97.6°F on 9/11/14
Low Temp 60.5°F at 2:34am 56.7°F at 7:43am 50.5°F on 10/15/14 50.5°F on 10/15/14
High Dew Point 59.6°F at 12:03am 63.1°F at 4:20pm 78.2°F on 10/2/14 79.4°F on 9/16/14
Low Dew Point 57.3°F at 2:25am 54.4°F at 7:43am 44.4°F on 10/4/14 44.4°F on 10/4/14
High Humidity 90% at 2:26am 93% at 7:58am 95% on 10/1/14 95% on 9/7/14
Low Humidity 81% at 12:00am 44% at 4:23pm 32% on 10/15/14 32% on 10/15/14
High Heat Index 69.7°F at 12:03am 86.5°F at 4:20pm 109.5°F on 10/2/14 110.8°F on 9/10/14
High Barometer 29.99in at 12:00am 30.08in at 10:29am 30.10in on 10/4/14 30.10in on 10/4/14
Low Barometer 29.96in at 2:14am 29.97in at 6:44pm 29.60in on 10/13/14 29.60in on 10/13/14
High Wind Speed 0mph at 12:00am 6mph at 1:47pm 27mph on 10/6/14 27mph on 10/6/14
High Wind Gust 0mph at 12:00am 6mph at 1:47pm 27mph on 10/6/14 27mph on 10/6/14
Low Wind Chill 60.5°F at 2:34am 56.7°F at 7:43am 50.5°F on 10/15/14 50.5°F on 10/15/14

Sun & Moon
Sunrise:  7:33am Sunset:  6:42pm Moon Phase:
5%
Moonrise:  10:03am Moonset:  9:01pm
Star Chart...

 

Local Trend Graphs


MesoNet Local Weather Exchange® Network

Station ID

City 
(Click for Map Location)

Neighborhood 
(Click for History)
Last Update
(Date & Time)

Temp
 (°)

Dew
Point (°)
Humidity 
(%)
Wind 
(mph)
From
the
Gust
(mph) 
Pressure (in) Hourly
Rain (in)
KTXHOUST61 Houston Willow Point 10/26 02:30:03 61.3 24.0 24 0 SSW 0 29.97 0.00
KTXHOUST186 Houston Winchester Trails 10/26 02:30:26 60.6 58.0 90 0 NNE 0 30.08 0.00
KTXHOUST213 Houston 18220 Tomball Parkway 10/26 02:29:41 65.7 60.0 83 1 NNE 2 29.88 0.00
KTXHOUST178 Houston Schroeder Oaks Village 10/26 02:27:28 61.2 57.0 85 0 SSW 0 30.02 0.00
KTXHOUST291 Houston Steeplechase 10/26 02:30:29 63.3 62.0 97 0 West 0 29.94 0.00
KTXHOUST216 Houston Cutten Green 10/26 02:30:01 63.8 60.0 86 0 SSW 0 30.04 0.00
KTXHOUST232 Houston Rolling Fork 10/26 02:30:21 61.8 60.0 92 0 South 12 30.04 0.00
KTXHOUST349 Houston Champions Crossing 10/26 02:19:26 60.8 59.0 93 0 NE 0 29.88 0.00
KTXHOUST218 Houston Woodland Trails West 10/26 02:30:04 62.6 59.0 88 0 WSW 0 30.05 0.00
KTXHOUST121 Houston Norchester, K5WH 10/26 02:25:35 60.8 58.0 92 0

SSE 0 30.03 0.00
KTXHOUST170 Houston Champions Park 10/26 02:25:00 61.9 59.0 90 0 South 0 30.04 0.00
KTXTEXAS12 Texas FM 1960 10/26 02:25:16 60.8 60.0 96 0 NW 0 30.02 0.00
KTXHOUST342 Houston Lakewood Forest at Cypresswood 10/26 02:29:58 62.8 57.0 82 0 East 0 29.85 0.00
KTXHOUST233 Houston Woods of Wimbledon 10/26 02:30:27 64.6 57.0 77 0 SE 0 30.06 0.00
KTXHOUST352 Houston Vila Toscana 10/26 02:30:27 66.0 61.0 83 0 South 1 30.01 0.00
KTXHOUST260 Houston Villages at Lakepointe 10/26 02:30:14 61.3 59.0 91 0 SSW 0 30.13 0.00
KTXHOUST169 Houston Lakewood Forest 10/26 02:30:06 62.7 60.0 91 0 ESE 0 30.06 0.00
KTXHOUST261 Cypress Heatherwood Village 10/26 02:23:35 60.8 59.0 95 0 SE 0 29.51 0.00
KTXSPRIN88 Spring Champions Woods 10/26 02:23:38 60.1 59.0 95 0 West 0 29.75 0.00
KTXCYPRE11 Cypress Weiser Airpark 10/26 02:30:01 59.9 54.0 80 0 South 0 30.08 0.00
KTXCYPRE42 Cypress Great Oaks 10/26 02:25:24 58.4 57.0 96 0 SW 0 30.05 0.00
KTXCYPRE79 Cypress Cypress Chase 10/26 02:30:30 59.2 59.0 99 0 NW 0 30.06 0.00
KTXHOUST271 Houston Middlegate Village 10/26 02:30:22 60.8 58.0 91 0 West 0 29.86 0.00
KTXCYPRE5 Cypress NW Houston (Wincrest Falls) 10/26 02:30:30 62.6 60.0 90 0 East 0 29.98 0.00
KTXSPRIN9 Spring Wimbledon 10/26 02:30:23 61.6 56.0 83 0 ESE 0 29.96 0.00
KTXTOMBA9 Tomball Spring Cypress/Eldridge 10/26 02:30:23 60.5 59.0 94 0 East 0 30.07 0.00
KTXCYPRE39 Cypress Longwood 10/26 02:25:45 58.9 58.0 95 0 SW 3 30.05 0.00
KTXHOUST29 Houston Concord Colony - K5EBQ 10/26 02:16:00 61.3 59.0 91 0 SSE 0 30.06 0.00
KTXSPRIN83 Spring Memorial NorthWest 10/26 02:30:01 60.8 59.0 95 0 West 0 29.68 0.00
KTXHOUST265 Houston Spring Shadows 10/26 02:21:25 61.8 60.0 92 0 SSW 0 30.06 0.00
KTXHOUST159 Houston Copper Village 10/26 02:30:29 62.2 59.0 90 0 SSW 0 29.98 0.00
KTXSPRIN5 Spring Memorial Northwest 10/26 02:30:27 60.7 58.0 92 0 ESE 0 29.98 0.00
KTXHOUST200 Houston Binglewood 10/26 02:30:25 62.1 53.0 71 0 SSE 0 30.09 0.00
KDWH Houston Hooks Official Station 10/26 02:24:00 59.0 57.0 94 0 North --- 30.07 ---
KIAH Houston Intercontinental Official Station 10/26 01:53:00 60.0 59.0 96 0 North --- 30.07 ---
KMCJ Houston / Dunn Helistop Official Station 10/26 02:15:00 68.0 59.0 73 0 North --- 30.04 ---
KSGR Houston Hull Official Station 10/26 02:13:00 59.0 58.0 96 0 North --- 30.07 ---
KTXCYPRE54 Cypress Canyon Lakes West 10/26 02:30:30 62.7 58.0 83 0 North 0 30.15 0.00
KTXHOUST197 Cypress Canyon Lakes West 10/26 02:30:18 59.0 57.0 93 0 SE 0 29.98 0.00
KTXCYPRE65 Cypress Heritage Towne Lake 61.7 61.7 59.0 92 0 South 0 30.04 0.00